Laramie, WY

8:34 PM MDT on May 29, 2017 (GMT -0600)
Laramie Regional

Weather History for KLAR - May, 2012

Change the Weather History Date:

Tuesday, May 1, 2012

  Actual Average Record
Temperature  
Mean Temperature 51 °F 43 °F  
Max Temperature 60 °F 56 °F 75 °F (1959)
Min Temperature 41 °F 29 °F 11 °F (2013)
Degree Days  
Heating Degree Days 14 22  
Month to date heating degree days 14 22  
Since 1 July heating degree days 7614 8071  
Cooling Degree Days 0 0  
Month to date cooling degree days 0 0  
Year to date cooling degree days 0 0  
Growing Degree Days 1 (Base 50)    
Moisture  
Dew Point 28 °F    
Average Humidity 46    
Maximum Humidity 67    
Minimum Humidity 24    
Precipitation  
Precipitation T in 0.04 in 0.32 in (1977)
Month to date precipitation T 0.04  
Year to date precipitation 1.65 2.30  
Sea Level Pressure  
Sea Level Pressure 29.65 in    
Wind  
Wind Speed 15 mph (WSW)    
Max Wind Speed 36 mph    
Max Gust Speed 45 mph    
Visibility 10 miles    
Events      
T = Trace of Precipitation, MM = Missing Value Source: NWS Daily Summary

Daily Weather History Graph

Daily Weather History Graph

Search for Another Location

Airport or City:

Trip Planner

Search our weather history database for the weather conditions in past years. The results will help you decide how hot, cold, wet, or windy it might be!

Date:

Astronomy

May. 01, 2012 Rise Set
Actual Time 5:59 AM MDT 8:00 PM MDT
Civil Twilight 5:29 AM MDT 8:30 PM MDT
Nautical Twilight 4:52 AM MDT 9:07 PM MDT
Astronomical Twilight 4:12 AM MDT 9:48 PM MDT
Moon 3:04 PM MDT (5/1) 3:01 AM MDT (5/1)
Length of Visible Light 15h 01m
Length of Day
14h 01m
Waxing Gibbous, 74% of the Moon is Illuminated
May 1
Waxing Gibbous
May 5
Full
May 12
Last Quarter
May 20
New
May 28
First Quarter

Hourly Weather History & Observations

Time (MDT) Temp. Windchill Dew Point Humidity Pressure Visibility Wind Dir Wind Speed Gust Speed Precip Events Conditions
12:53 AM 44.1 °F 38.6 °F 17.1 °F 34% 29.59 in 10.0 mi WSW 10.4 mph - N/A   Clear
1:53 AM 46.9 °F - 17.1 °F 30% 29.56 in 10.0 mi SW 4.6 mph - N/A   Clear
2:53 AM 50.0 °F - 16.0 °F 26% 29.51 in 10.0 mi SE 3.5 mph - N/A   Clear
3:53 AM 46.4 °F 42.4 °F 17.6 °F 32% 29.77 in 10.0 mi South 8.1 mph - N/A   Clear
4:53 AM 44.6 °F 38.8 °F 19.4 °F 37% 29.78 in 10.0 mi SE 11.5 mph - N/A   Clear
5:53 AM 44.1 °F 38.1 °F 19.9 °F 38% 29.54 in 10.0 mi South 11.5 mph - N/A   Clear
6:53 AM 48.2 °F - 23.0 °F 37% 29.81 in 10.0 mi North 4.6 mph - N/A   Partly Cloudy
7:53 AM 52.0 °F - 27.0 °F 38% 29.56 in 10.0 mi NNE 6.9 mph - N/A   Mostly Cloudy
8:35 AM 53.6 °F - 30.2 °F 41% 29.83 in 10.0 mi NW 18.4 mph 27.6 mph N/A   Overcast
8:53 AM 53.1 °F - 32.0 °F 45% 29.57 in 10.0 mi WNW 15.0 mph - N/A   Overcast
9:53 AM 55.0 °F - 30.9 °F 40% 29.57 in 10.0 mi West 24.2 mph 32.2 mph N/A   Mostly Cloudy
10:53 AM 53.1 °F - 30.9 °F 43% 29.62 in 10.0 mi West 19.6 mph 27.6 mph N/A   Scattered Clouds
11:53 AM 54.0 °F - 33.1 °F 45% 29.59 in 10.0 mi West 15.0 mph 24.2 mph N/A   Mostly Cloudy
12:53 PM 59.0 °F - 33.1 °F 38% 29.60 in 10.0 mi West 21.9 mph 32.2 mph N/A   Mostly Cloudy
1:53 PM 57.2 °F - 33.8 °F 41% 29.83 in 10.0 mi WSW 26.5 mph 34.5 mph N/A   Partly Cloudy
2:53 PM 57.9 °F - 33.1 °F 39% 29.58 in 10.0 mi West 24.2 mph 32.2 mph N/A   Clear
3:53 PM 57.0 °F - 32.0 °F 39% 29.60 in 10.0 mi West 25.3 mph 36.8 mph N/A   Clear
4:53 PM 53.1 °F - 32.0 °F 45% 29.66 in 10.0 mi West 25.3 mph 35.7 mph N/A   Mostly Cloudy
5:53 PM 52.0 °F - 30.9 °F 45% 29.67 in 10.0 mi West 23.0 mph 32.2 mph N/A   Scattered Clouds
6:53 PM 52.0 °F - 30.9 °F 45% 29.65 in 10.0 mi West 21.9 mph - N/A   Clear
7:53 PM 48.9 °F - 28.0 °F 44% 29.66 in 10.0 mi West 13.8 mph - N/A   Partly Cloudy
8:53 PM 46.0 °F 41.0 °F 28.9 °F 51% 29.68 in 10.0 mi WSW 10.4 mph - N/A   Clear
9:53 PM 45.0 °F 43.5 °F 30.9 °F 58% 29.69 in 10.0 mi SW 3.5 mph - N/A   Clear
10:53 PM 43.0 °F 37.7 °F 32.0 °F 65% 29.70 in 10.0 mi South 9.2 mph - N/A   Clear
11:53 PM 46.0 °F 39.3 °F 34.0 °F 63% 29.67 in 10.0 mi SW 16.1 mph 21.9 mph N/A   Mostly Cloudy